Time,TemperatureF,DewpointF,PressureIn,WindDirection,WindDirectionDegrees,WindSpeedMPH,WindSpeedGustMPH,Humidity,HourlyPrecipIn,Conditions,Clouds,dailyrainin,SoftwareType,DateUTC
2013-01-22 00:02:00,32.0,32.0,30.14,WSW,245,1.0,4.0,98,0.00,,,0.00,,2013-01-22 08:02:00,
2013-01-22 00:11:00,32.0,32.0,30.14,WSW,245,1.0,4.0,98,0.00,,,0.00,,2013-01-22 08:11:00,
2013-01-22 00:22:00,32.0,32.0,30.13,East,94,0.0,1.0,98,0.00,,,0.00,,2013-01-22 08:22:00,
2013-01-22 00:32:00,32.0,32.0,30.13,East,94,0.0,1.0,98,0.00,,,0.00,,2013-01-22 08:32:00,
2013-01-22 00:43:00,32.0,32.0,30.13,East,94,0.0,1.0,98,0.00,,,0.00,,2013-01-22 08:43:00,
2013-01-22 00:52:00,31.0,31.0,30.13,ESE,105,0.0,3.0,98,0.00,,,0.00,,2013-01-22 08:52:00,
2013-01-22 01:02:00,31.0,31.0,30.13,ESE,105,0.0,3.0,98,0.00,,,0.00,,2013-01-22 09:02:00,
2013-01-22 01:11:00,31.0,31.0,30.13,ESE,105,0.0,3.0,98,0.00,,,0.00,,2013-01-22 09:11:00,
2013-01-22 01:22:00,31.0,31.0,30.13,East,83,0.0,2.0,98,0.00,,,0.00,,2013-01-22 09:22:00,
2013-01-22 01:32:00,31.0,31.0,30.13,East,83,0.0,2.0,98,0.00,,,0.00,,2013-01-22 09:32:00,
2013-01-22 01:43:00,31.0,31.0,30.13,East,83,0.0,2.0,98,0.00,,,0.00,,2013-01-22 09:43:00,
2013-01-22 01:52:00,32.0,32.0,30.13,SSE,158,1.0,6.0,98,0.00,,,0.00,,2013-01-22 09:52:00,
2013-01-22 02:02:00,32.0,32.0,30.13,SSE,158,1.0,6.0,98,0.00,,,0.00,,2013-01-22 10:02:00,
2013-01-22 02:12:00,32.0,32.0,30.13,SSE,158,1.0,6.0,98,0.00,,,0.00,,2013-01-22 10:12:00,
2013-01-22 02:22:00,33.0,32.0,30.13,SW,215,3.0,4.0,98,0.00,,,0.00,,2013-01-22 10:22:00,
2013-01-22 02:32:00,33.0,32.0,30.13,SW,215,3.0,4.0,98,0.00,,,0.00,,2013-01-22 10:32:00,
2013-01-22 02:42:00,33.0,32.0,30.13,SW,215,3.0,4.0,98,0.00,,,0.00,,2013-01-22 10:42:00,
2013-01-22 02:52:00,32.0,32.0,30.12,SSW,198,0.0,1.0,98,0.00,,,0.00,,2013-01-22 10:52:00,
2013-01-22 03:02:00,32.0,32.0,30.12,SSW,198,0.0,1.0,98,0.00,,,0.00,,2013-01-22 11:02:00,
2013-01-22 03:12:00,32.0,32.0,30.12,SSW,198,0.0,1.0,98,0.00,,,0.00,,2013-01-22 11:12:00,
2013-01-22 03:22:00,32.0,32.0,30.13,SSW,208,0.0,1.0,98,0.00,,,0.00,,2013-01-22 11:22:00,
2013-01-22 03:32:00,32.0,32.0,30.13,SSW,208,0.0,1.0,98,0.00,,,0.00,,2013-01-22 11:32:00,
2013-01-22 03:43:00,32.0,32.0,30.13,SSW,208,0.0,1.0,98,0.00,,,0.00,,2013-01-22 11:43:00,
2013-01-22 03:53:00,31.0,31.0,30.12,East,79,1.0,2.0,98,0.00,,,0.00,,2013-01-22 11:53:00,
2013-01-22 04:02:00,31.0,31.0,30.12,East,79,1.0,2.0,98,0.00,,,0.00,,2013-01-22 12:02:00,
2013-01-22 04:12:00,31.0,31.0,30.12,East,79,1.0,2.0,98,0.00,,,0.00,,2013-01-22 12:12:00,
2013-01-22 04:22:00,31.0,31.0,30.12,East,86,0.0,2.0,98,0.00,,,0.00,,2013-01-22 12:22:00,
2013-01-22 04:32:00,31.0,31.0,30.12,East,86,0.0,2.0,98,0.00,,,0.00,,2013-01-22 12:32:00,
2013-01-22 04:43:00,31.0,31.0,30.12,East,86,0.0,2.0,98,0.00,,,0.00,,2013-01-22 12:43:00,
2013-01-22 04:53:00,31.0,31.0,30.10,ESE,105,0.0,1.0,98,0.00,,,0.00,,2013-01-22 12:53:00,
2013-01-22 05:02:00,31.0,31.0,30.10,ESE,105,0.0,1.0,98,0.00,,,0.00,,2013-01-22 13:02:00,
2013-01-22 05:13:00,31.0,31.0,30.10,ESE,105,0.0,1.0,98,0.00,,,0.00,,2013-01-22 13:13:00,
2013-01-22 05:22:00,31.0,31.0,30.10,ESE,116,0.0,1.0,98,0.00,,,0.00,,2013-01-22 13:22:00,
2013-01-22 05:32:00,31.0,31.0,30.10,ESE,116,0.0,1.0,98,0.00,,,0.00,,2013-01-22 13:32:00,
2013-01-22 05:43:00,31.0,31.0,30.10,ESE,116,0.0,1.0,98,0.00,,,0.00,,2013-01-22 13:43:00,
2013-01-22 05:53:00,31.0,31.0,30.09,East,89,0.0,2.0,98,0.00,,,0.00,,2013-01-22 13:53:00,
2013-01-22 06:02:00,31.0,31.0,30.09,East,89,0.0,2.0,98,0.00,,,0.00,,2013-01-22 14:02:00,
2013-01-22 06:12:00,31.0,31.0,30.09,East,89,0.0,2.0,98,0.00,,,0.00,,2013-01-22 14:12:00,
2013-01-22 06:22:00,31.0,31.0,30.08,East,92,0.0,1.0,98,0.00,,,0.00,,2013-01-22 14:22:00,
2013-01-22 06:33:00,31.0,31.0,30.08,East,92,0.0,1.0,98,0.00,,,0.00,,2013-01-22 14:33:00,
2013-01-22 06:44:00,31.0,31.0,30.08,East,92,0.0,1.0,98,0.00,,,0.00,,2013-01-22 14:44:00,
2013-01-22 06:53:00,32.0,32.0,30.08,East,90,0.0,0.0,98,0.00,,,0.00,,2013-01-22 14:53:00,
2013-01-22 07:02:00,32.0,32.0,30.08,East,90,0.0,0.0,98,0.00,,,0.00,,2013-01-22 15:02:00,
2013-01-22 07:12:00,32.0,32.0,30.08,East,90,0.0,0.0,98,0.00,,,0.00,,2013-01-22 15:12:00,
2013-01-22 07:23:00,32.0,32.0,30.07,East,83,0.0,1.0,98,0.00,,,0.00,,2013-01-22 15:23:00,
2013-01-22 07:33:00,32.0,32.0,30.07,East,83,0.0,1.0,98,0.00,,,0.00,,2013-01-22 15:33:00,
2013-01-22 07:43:00,32.0,32.0,30.07,East,83,0.0,1.0,98,0.00,,,0.00,,2013-01-22 15:43:00,
2013-01-22 07:53:00,32.0,32.0,30.07,East,93,0.0,1.0,98,0.00,,,0.00,,2013-01-22 15:53:00,
2013-01-22 08:02:00,32.0,32.0,30.07,East,93,0.0,1.0,98,0.00,,,0.00,,2013-01-22 16:02:00,
2013-01-22 08:13:00,32.0,32.0,30.07,East,93,0.0,1.0,98,0.00,,,0.00,,2013-01-22 16:13:00,
2013-01-22 08:23:00,32.0,32.0,30.07,East,99,0.0,2.0,98,0.00,,,0.00,,2013-01-22 16:23:00,
2013-01-22 08:32:00,32.0,32.0,30.07,East,99,0.0,2.0,98,0.00,,,0.00,,2013-01-22 16:32:00,
2013-01-22 08:43:00,32.0,32.0,30.07,East,99,0.0,2.0,98,0.00,,,0.00,,2013-01-22 16:43:00,
2013-01-22 08:53:00,32.0,32.0,30.07,ENE,60,0.0,1.0,98,0.00,,,0.00,,2013-01-22 16:53:00,
2013-01-22 09:02:00,32.0,32.0,30.07,ENE,60,0.0,1.0,98,0.00,,,0.00,,2013-01-22 17:02:00,
2013-01-22 09:12:00,32.0,32.0,30.07,ENE,60,0.0,1.0,98,0.00,,,0.00,,2013-01-22 17:12:00,
2013-01-22 09:22:00,32.0,32.0,30.07,East,94,0.0,2.0,98,0.00,,,0.00,,2013-01-22 17:22:00,
2013-01-22 09:33:00,32.0,32.0,30.07,East,94,0.0,2.0,98,0.00,,,0.00,,2013-01-22 17:33:00,
2013-01-22 09:44:00,32.0,32.0,30.07,East,94,0.0,2.0,98,0.00,,,0.00,,2013-01-22 17:44:00,
2013-01-22 09:53:00,33.0,32.0,30.07,East,86,0.0,1.0,98,0.00,,,0.00,,2013-01-22 17:53:00,
2013-01-22 10:02:00,33.0,32.0,30.07,East,86,0.0,1.0,98,0.00,,,0.00,,2013-01-22 18:02:00,
2013-01-22 10:12:00,33.0,32.0,30.07,East,86,0.0,1.0,98,0.00,,,0.00,,2013-01-22 18:12:00,
2013-01-22 10:23:00,34.0,34.0,30.07,East,90,0.0,1.0,98,0.00,,,0.00,,2013-01-22 18:23:00,
2013-01-22 10:33:00,34.0,34.0,30.07,East,90,0.0,1.0,98,0.00,,,0.00,,2013-01-22 18:33:00,
2013-01-22 10:43:00,34.0,34.0,30.07,East,90,0.0,1.0,98,0.00,,,0.00,,2013-01-22 18:43:00,
2013-01-22 10:53:00,34.0,34.0,30.07,ENE,71,0.0,1.0,98,0.00,,,0.00,,2013-01-22 18:53:00,
2013-01-22 11:02:00,34.0,34.0,30.07,ENE,71,0.0,1.0,98,0.00,,,0.00,,2013-01-22 19:02:00,
2013-01-22 11:13:00,34.0,34.0,30.07,ENE,71,0.0,1.0,98,0.00,,,0.00,,2013-01-22 19:13:00,
2013-01-22 11:22:00,34.0,34.0,30.07,East,100,0.0,1.0,98,0.00,,,0.00,,2013-01-22 19:22:00,
2013-01-22 11:32:00,34.0,34.0,30.07,East,100,0.0,1.0,98,0.00,,,0.00,,2013-01-22 19:32:00,
2013-01-22 11:43:00,34.0,34.0,30.07,East,100,0.0,1.0,98,0.00,,,0.00,,2013-01-22 19:43:00,
2013-01-22 11:53:00,35.0,34.0,30.06,West,259,0.0,2.0,98,0.00,,,0.00,,2013-01-22 19:53:00,
2013-01-22 12:02:00,35.0,34.0,30.06,West,259,0.0,2.0,98,0.00,,,0.00,,2013-01-22 20:02:00,
2013-01-22 12:12:00,35.0,34.0,30.06,West,259,0.0,2.0,98,0.00,,,0.00,,2013-01-22 20:12:00,
2013-01-22 12:22:00,35.0,34.0,30.05,West,276,0.0,3.0,98,0.00,,,0.00,,2013-01-22 20:22:00,
2013-01-22 12:32:00,35.0,34.0,30.05,West,276,0.0,3.0,98,0.00,,,0.00,,2013-01-22 20:32:00,
2013-01-22 12:43:00,35.0,34.0,30.05,West,276,0.0,3.0,98,0.00,,,0.00,,2013-01-22 20:43:00,
2013-01-22 12:53:00,36.0,35.0,30.04,SW,231,0.0,1.0,98,0.00,,,0.00,,2013-01-22 20:53:00,
2013-01-22 13:02:00,36.0,35.0,30.04,SW,231,0.0,1.0,98,0.00,,,0.00,,2013-01-22 21:02:00,
2013-01-22 13:13:00,36.0,35.0,30.04,SW,231,0.0,1.0,98,0.00,,,0.00,,2013-01-22 21:13:00,
2013-01-22 13:22:00,37.0,36.0,30.03,WSW,250,0.0,1.0,98,0.00,,,0.00,,2013-01-22 21:22:00,
2013-01-22 13:33:00,37.0,36.0,30.03,WSW,250,0.0,1.0,98,0.00,,,0.00,,2013-01-22 21:33:00,
2013-01-22 13:43:00,37.0,36.0,30.03,WSW,250,0.0,1.0,98,0.00,,,0.00,,2013-01-22 21:43:00,
2013-01-22 13:53:00,38.0,37.0,30.01,East,98,1.0,3.0,98,0.00,,,0.00,,2013-01-22 21:53:00,
2013-01-22 14:02:00,38.0,37.0,30.01,East,98,1.0,3.0,98,0.00,,,0.00,,2013-01-22 22:02:00,
2013-01-22 14:12:00,38.0,37.0,30.01,East,98,1.0,3.0,98,0.00,,,0.00,,2013-01-22 22:12:00,
2013-01-22 14:22:00,37.0,36.0,30.01,South,183,1.0,5.0,97,0.00,,,0.00,,2013-01-22 22:22:00,
2013-01-22 14:32:00,37.0,36.0,30.01,South,183,1.0,5.0,97,0.00,,,0.00,,2013-01-22 22:32:00,
2013-01-22 14:43:00,37.0,36.0,30.01,South,183,1.0,5.0,97,0.00,,,0.00,,2013-01-22 22:43:00,
2013-01-22 14:53:00,38.0,37.0,29.99,SW,216,0.0,0.0,97,0.00,,,0.00,,2013-01-22 22:53:00,
2013-01-22 15:02:00,38.0,37.0,29.99,SW,216,0.0,0.0,97,0.00,,,0.00,,2013-01-22 23:02:00,
2013-01-22 15:12:00,38.0,37.0,29.99,SW,216,0.0,0.0,97,0.00,,,0.00,,2013-01-22 23:12:00,
2013-01-22 15:23:00,38.0,37.0,29.99,ENE,59,0.0,1.0,96,0.00,,,0.00,,2013-01-22 23:23:00,
2013-01-22 15:32:00,38.0,37.0,29.99,ENE,59,0.0,1.0,96,0.00,,,0.00,,2013-01-22 23:32:00,
2013-01-22 15:43:00,38.0,37.0,29.99,ENE,59,0.0,1.0,96,0.00,,,0.00,,2013-01-22 23:43:00,
2013-01-22 15:53:00,38.0,37.0,29.98,West,272,1.0,3.0,96,0.00,,,0.00,,2013-01-22 23:53:00,
2013-01-22 16:02:00,38.0,37.0,29.98,West,272,1.0,3.0,96,0.00,,,0.00,,2013-01-23 00:02:00,
2013-01-22 16:12:00,38.0,37.0,29.98,West,272,1.0,3.0,96,0.00,,,0.00,,2013-01-23 00:12:00,
2013-01-22 16:22:00,37.0,36.0,29.97,West,262,2.0,3.0,95,0.00,,,0.00,,2013-01-23 00:22:00,
2013-01-22 16:32:00,37.0,36.0,29.97,West,262,2.0,3.0,95,0.00,,,0.00,,2013-01-23 00:32:00,
2013-01-22 16:43:00,37.0,36.0,29.97,West,262,2.0,3.0,95,0.00,,,0.00,,2013-01-23 00:43:00,
2013-01-22 16:52:00,37.0,36.0,29.97,WSW,249,1.0,1.0,96,0.00,,,0.00,,2013-01-23 00:52:00,
2013-01-22 17:02:00,37.0,36.0,29.97,WSW,249,1.0,1.0,96,0.00,,,0.00,,2013-01-23 01:02:00,
2013-01-22 17:13:00,37.0,36.0,29.97,WSW,249,1.0,1.0,96,0.00,,,0.00,,2013-01-23 01:13:00,
2013-01-22 17:22:00,37.0,36.0,29.96,SW,229,0.0,0.0,96,0.00,,,0.00,,2013-01-23 01:22:00,
2013-01-22 17:32:00,37.0,36.0,29.96,SW,229,0.0,0.0,96,0.00,,,0.00,,2013-01-23 01:32:00,
2013-01-22 17:43:00,37.0,36.0,29.96,SW,229,0.0,0.0,96,0.00,,,0.00,,2013-01-23 01:43:00,
2013-01-22 17:53:00,37.0,36.0,29.96,West,264,0.0,1.0,96,0.00,,,0.00,,2013-01-23 01:53:00,
2013-01-22 18:02:00,37.0,36.0,29.96,West,264,0.0,1.0,96,0.00,,,0.00,,2013-01-23 02:02:00,
2013-01-22 18:12:00,37.0,36.0,29.96,West,264,0.0,1.0,96,0.00,,,0.00,,2013-01-23 02:12:00,
2013-01-22 18:22:00,37.0,36.0,29.95,SSW,208,0.0,2.0,95,0.00,,,0.00,,2013-01-23 02:22:00,
2013-01-22 18:32:00,37.0,36.0,29.95,SSW,208,0.0,2.0,95,0.00,,,0.00,,2013-01-23 02:32:00,
2013-01-22 18:43:00,37.0,36.0,29.95,SSW,208,0.0,2.0,95,0.00,,,0.00,,2013-01-23 02:43:00,
2013-01-22 18:53:00,37.0,36.0,29.95,SE,124,0.0,2.0,95,0.00,,,0.00,,2013-01-23 02:53:00,
2013-01-22 19:02:00,37.0,36.0,29.95,SE,124,0.0,2.0,95,0.00,,,0.00,,2013-01-23 03:02:00,
2013-01-22 19:12:00,37.0,36.0,29.95,SE,124,0.0,2.0,95,0.00,,,0.00,,2013-01-23 03:12:00,
2013-01-22 19:22:00,37.0,36.0,29.93,ESE,108,1.0,4.0,95,0.00,,,0.00,,2013-01-23 03:22:00,
2013-01-22 19:32:00,37.0,36.0,29.93,ESE,108,1.0,4.0,95,0.00,,,0.00,,2013-01-23 03:32:00,
2013-01-22 19:43:00,37.0,36.0,29.93,ESE,108,1.0,4.0,95,0.00,,,0.00,,2013-01-23 03:43:00,
2013-01-22 19:53:00,37.0,35.0,29.92,ESE,110,1.0,3.0,94,0.00,,,0.00,,2013-01-23 03:53:00,
2013-01-22 20:02:00,37.0,35.0,29.92,ESE,110,1.0,3.0,94,0.00,,,0.00,,2013-01-23 04:02:00,
2013-01-22 20:12:00,37.0,35.0,29.92,ESE,110,1.0,3.0,94,0.00,,,0.00,,2013-01-23 04:12:00,
2013-01-22 20:22:00,37.0,35.0,29.92,ESE,122,0.0,1.0,94,0.00,,,0.00,,2013-01-23 04:22:00,
2013-01-22 20:32:00,37.0,35.0,29.92,ESE,122,0.0,1.0,94,0.00,,,0.00,,2013-01-23 04:32:00,
2013-01-22 20:43:00,37.0,35.0,29.92,ESE,122,0.0,1.0,94,0.00,,,0.00,,2013-01-23 04:43:00,
2013-01-22 20:53:00,37.0,35.0,29.92,East,87,1.0,2.0,92,0.00,,,0.00,,2013-01-23 04:53:00,
2013-01-22 21:03:00,37.0,35.0,29.92,East,87,1.0,2.0,92,0.00,,,0.00,,2013-01-23 05:03:00,
2013-01-22 21:12:00,37.0,35.0,29.92,East,87,1.0,2.0,92,0.00,,,0.00,,2013-01-23 05:12:00,
2013-01-22 21:22:00,37.0,35.0,29.92,West,266,1.0,1.0,94,0.00,,,0.00,,2013-01-23 05:22:00,
2013-01-22 21:32:00,37.0,35.0,29.92,West,266,1.0,1.0,94,0.00,,,0.00,,2013-01-23 05:32:00,
2013-01-22 21:43:00,37.0,35.0,29.92,West,266,1.0,1.0,94,0.00,,,0.00,,2013-01-23 05:43:00,
2013-01-22 21:53:00,38.0,36.0,29.91,West,259,0.0,0.0,94,0.00,,,0.00,,2013-01-23 05:53:00,
2013-01-22 22:02:00,38.0,36.0,29.91,West,259,0.0,0.0,94,0.00,,,0.00,,2013-01-23 06:02:00,
2013-01-22 22:12:00,38.0,36.0,29.91,West,259,0.0,0.0,94,0.00,,,0.00,,2013-01-23 06:12:00,
2013-01-22 22:22:00,38.0,36.0,29.91,East,89,2.0,2.0,94,0.00,,,0.00,,2013-01-23 06:22:00,
2013-01-22 22:32:00,38.0,36.0,29.91,East,89,2.0,2.0,94,0.00,,,0.00,,2013-01-23 06:32:00,
2013-01-22 22:43:00,38.0,36.0,29.91,East,89,2.0,2.0,94,0.00,,,0.00,,2013-01-23 06:43:00,
2013-01-22 22:53:00,38.0,36.0,29.91,ESE,103,1.0,2.0,94,0.00,,,0.00,,2013-01-23 06:53:00,
2013-01-22 23:02:00,38.0,36.0,29.91,ESE,103,1.0,2.0,94,0.00,,,0.00,,2013-01-23 07:02:00,
2013-01-22 23:12:00,38.0,36.0,29.91,ESE,103,1.0,2.0,94,0.00,,,0.00,,2013-01-23 07:12:00,
2013-01-22 23:22:00,39.0,37.0,29.91,WSW,253,1.0,2.0,94,0.00,,,0.00,,2013-01-23 07:22:00,
2013-01-22 23:32:00,39.0,37.0,29.91,WSW,253,1.0,2.0,94,0.00,,,0.00,,2013-01-23 07:32:00,
2013-01-22 23:43:00,39.0,37.0,29.91,WSW,253,1.0,2.0,94,0.00,,,0.00,,2013-01-23 07:43:00,
2013-01-22 23:53:00,39.0,37.0,29.92,WSW,249,2.0,6.0,94,0.00,,,0.00,,2013-01-23 07:53:00,